Flag for Canada Weather past 2 weeks in Mount Pearl, Newfoundland and Labrador, Canada

Now
64 °F

Sprinkles. Mostly cloudy.


Feels Like: 64 °F
Forecast: 62 / 72 °F
Wind: 8 mph from West

Location: St. John's

Current Time: Jul 26, 2014 at 5:30:00 AM

Latest Report: Jul 26, 2014 at 4:30 AM


Visibility: 15 mi

Pressure: 29.68 "Hg

Humidity: 100%

Dew point: 64 °F

Location of Mount PearlLocation

Historic Weather in Mount Pearl — Graph

°F

Mount Pearl temperature yesterday

Maximum temperature yesterday: 77 °F (at 3:30 PM)
Minimum temperature yesterday: 63 °F (at 8:30 AM)
Average temperature yesterday: 69 °F

Past Weeks' High & Low Weather Summary

 TemperatureHumidityPressure
High84 °F (Jul 21, 2:30 PM)100% (Jul 11, 7:30 AM)30.26 "Hg (Jul 11, 7:30 AM)
Low48 °F (Jul 20, 1:30 AM)27% (Jul 21, 3:30 PM)29.66 "Hg (Jul 26, 2:30 AM)
Average68 °F76%30.01 "Hg
* Reported Jul 11 4:30 AM — Jul 26 4:30 AM, Mount Pearl, Weather by CustomWeather, © 2014

Note: Actual official high and low records may vary slightly from our data, if they occured in-between our weather recording intervals... More about our weather records

Advertising

Mount Pearl weather history for previous 24 hours

 ConditionsComfort  
Time TempWeatherWind HumidityBarometerVisibility
4:30 AM
Jul 26
64 °FSprinkles. Mostly cloudy.8 mph100%29.68 "Hg15 mi
3:30 AM64 °FSprinkles. Low clouds.13 mph100%29.66 "Hg15 mi
2:30 AM66 °FSprinkles. Overcast.10 mph94%29.66 "Hg4 mi
1:30 AM68 °FSprinkles. Low clouds.14 mph100%29.67 "Hg12 mi
12:30 AM68 °FSprinkles. Low clouds.14 mph100%29.70 "Hg15 mi
11:30 PM
Jul 25
66 °FSprinkles. Fog.16 mph100%29.73 "Hg6 mi
10:30 PM68 °FSprinkles. Low clouds.13 mph94%29.75 "Hg15 mi
9:30 PM70 °FPartly cloudy.12 mph94%29.76 "Hg15 mi
8:30 PM70 °FPartly sunny.12 mph94%29.77 "Hg15 mi
7:30 PM72 °FPartly sunny.12 mph88%29.78 "Hg15 mi
6:30 PM73 °FMostly cloudy.14 mph89%29.78 "Hg15 mi
5:30 PM73 °FPartly sunny.16 mph89%29.78 "Hg15 mi
4:30 PM77 °FPartly sunny.12 mph79%29.78 "Hg15 mi
3:30 PM77 °FPartly sunny.10 mph83%29.78 "Hg15 mi
2:30 PM75 °FPartly sunny.12 mph83%29.78 "Hg15 mi
1:30 PM75 °FPartly sunny.10 mph83%29.79 "Hg15 mi
12:30 PM73 °FPartly sunny.14 mph94%29.80 "Hg15 mi
11:30 AM68 °FSprinkles. Partly sunny.15 mph100%29.81 "Hg15 mi
10:30 AM70 °FSprinkles. Partly sunny.18 mph94%29.81 "Hg15 mi
9:30 AM66 °FSprinkles. More clouds than sun.12 mph100%29.82 "Hg8 mi
8:30 AM63 °FRain showers. Fog.9 mph100%29.83 "Hg3 mi
7:30 AM64 °FMild.3 mph100%29.86 "Hg3 mi
6:30 AM66 °FPartly sunny.10 mph94%29.85 "Hg15 mi
5:30 AM66 °FPassing clouds.12 mph94%29.86 "Hg15 mi
Weather by CustomWeather, © 2014

See weather overviewHow to use our weather pages